When you browse on this site, cookies collect data to enhance your experience and personalize the content and advertising you see.
Visit our Privacy Policy to learn more. By continuing to use the site, you agree to this use of cookies and data.
  • In Belgium
  • List of Countries
  • For 7 days
  • Water Temperature
  • Satellite Maps
  • Weather Map
  • Weather Widgets
  • user-avatar
    Login

    Hourly Weather Menen

    Today, 22 January, Tuesday

    Time Temperature Precipitation Wind Pressure Humidity
    00:00 -5°C° 0 mm 5 mps 760 mmHg 60%
    01:00 -5°C° 0 mm 5 mps 758 mmHg 58%
    02:00 -4°C° 0 mm 5 mps 757 mmHg 57%
    03:00 -4°C° 0 mm 6 mps 756 mmHg 56%
    04:00 -4°C° 0 mm 6 mps 755 mmHg 56%
    05:00 -4°C° 0 mm 6 mps 754 mmHg 57%
    06:00 -4°C° 0 mm 7 mps 753 mmHg 57%
    07:00 -4°C° 0.6 mm 7 mps 753 mmHg 68%
    08:00 -4°C° 0.6 mm 7 mps 752 mmHg 79%
    09:00 -4°C° 0.6 mm 7 mps 751 mmHg 89%
    10:00 -3°C° 0.4 mm 6 mps 751 mmHg 90%
    11:00 -2°C° 0.4 mm 6 mps 751 mmHg 91%
    12:00 -1°C° 0.4 mm 5 mps 750 mmHg 92%
    13:00 -1°C° 0 mm 4 mps 750 mmHg 93%
    14:00 0°C° 0 mm 4 mps 750 mmHg 94%
    15:00 +1°C° 0 mm 3 mps 749 mmHg 94%
    16:00 0°C° 0 mm 3 mps 749 mmHg 94%
    17:00 -1°C° 0 mm 3 mps 749 mmHg 94%
    18:00 -1°C° 0 mm 3 mps 748 mmHg 94%
    19:00 -2°C° 0 mm 3 mps 748 mmHg 93%
    20:00 -2°C° 0 mm 3 mps 748 mmHg 93%
    21:00 -2°C° 0 mm 3 mps 747 mmHg 92%
    22:00 -2°C° 0 mm 3 mps 747 mmHg 93%
    23:00 -2°C° 0 mm 3 mps 747 mmHg 93%

    Tomorrow, 23 January, Wednesday

    Time Temperature Precipitation Wind Pressure Humidity
    00:00 -1°C° 0 mm 3 mps 746 mmHg 93%
    01:00 -1°C° 0.8 mm 3 mps 746 mmHg 94%
    02:00 -1°C° 0.8 mm 3 mps 746 mmHg 95%
    03:00 -1°C° 0.8 mm 3 mps 745 mmHg 97%
    04:00 -1°C° 0.7 mm 3 mps 745 mmHg 96%
    05:00 -1°C° 0.7 mm 3 mps 745 mmHg 96%
    06:00 -1°C° 0.7 mm 3 mps 745 mmHg 96%
    07:00 -1°C° 0.4 mm 3 mps 745 mmHg 96%
    08:00 -1°C° 0.4 mm 3 mps 746 mmHg 96%
    09:00 -1°C° 0.4 mm 3 mps 746 mmHg 96%
    10:00 -1°C° 0.1 mm 3 mps 747 mmHg 96%
    11:00 -1°C° 0.1 mm 3 mps 747 mmHg 95%
    12:00 -1°C° 0.1 mm 3 mps 747 mmHg 95%
    13:00 -1°C° 0 mm 3 mps 748 mmHg 95%
    14:00 -1°C° 0 mm 3 mps 749 mmHg 95%
    15:00 -1°C° 0 mm 3 mps 749 mmHg 94%
    16:00 -2°C° 0 mm 3 mps 750 mmHg 95%
    17:00 -3°C° 0 mm 2 mps 751 mmHg 95%
    18:00 -3°C° 0 mm 2 mps 752 mmHg 95%
    19:00 -3°C° 0 mm 2 mps 753 mmHg 95%
    20:00 0°C° 0 mm 1 mps 753 mmHg 94%
    21:00 0°C° 0 mm 1 mps 754 mmHg 94%
    22:00 +1°C° 0 mm 1 mps 754 mmHg 94%
    23:00 +1°C° 0 mm 1 mps 755 mmHg 93%

    Day after tomorrow, 24 January, Thursday

    Time Temperature Precipitation Wind Pressure Humidity
    00:00 +1°C° 0 mm 1 mps 755 mmHg 93%
    01:00 +1°C° 0 mm 1 mps 756 mmHg 92%
    02:00 +1°C° 0 mm 1 mps 756 mmHg 92%
    03:00 +1°C° 0 mm 1 mps 757 mmHg 92%
    04:00 +1°C° 0 mm 1 mps 757 mmHg 91%
    05:00 +1°C° 0 mm 1 mps 757 mmHg 91%
    06:00 0°C° 0 mm 1 mps 757 mmHg 91%
    07:00 +1°C° 0 mm 1 mps 758 mmHg 91%
    08:00 +1°C° 0 mm 1 mps 758 mmHg 92%
    09:00 +2°C° 0 mm 1 mps 759 mmHg 92%
    10:00 +2°C° 0 mm 1 mps 759 mmHg 95%
    11:00 +3°C° 0 mm 1 mps 759 mmHg 97%
    12:00 +3°C° 0 mm 1 mps 760 mmHg 99%
    13:00 +3°C° 0 mm 1 mps 760 mmHg 97%
    14:00 +2°C° 0 mm 2 mps 760 mmHg 95%
    15:00 +2°C° 0 mm 2 mps 760 mmHg 93%
    16:00 +2°C° 0 mm 2 mps 760 mmHg 92%
    17:00 +1°C° 0 mm 2 mps 761 mmHg 90%
    18:00 +1°C° 0 mm 2 mps 761 mmHg 89%
    19:00 -1°C° 0 mm 2 mps 761 mmHg 90%
    20:00 -1°C° 0 mm 2 mps 761 mmHg 90%
    21:00 -1°C° 0 mm 2 mps 762 mmHg 90%
    22:00 -2°C° 0 mm 2 mps 762 mmHg 90%
    23:00 -2°C° 0 mm 2 mps 762 mmHg 90%

    25 January, Friday

    Time Temperature Precipitation Wind Pressure Humidity
    00:00 -2°C° 0 mm 2 mps 762 mmHg 90%
    01:00 -2°C° 0 mm 2 mps 761 mmHg 90%
    02:00 -2°C° 0 mm 2 mps 761 mmHg 91%
    03:00 -2°C° 0 mm 2 mps 761 mmHg 91%
    04:00 -1°C° 0 mm 2 mps 761 mmHg 92%
    05:00 -1°C° 0 mm 3 mps 761 mmHg 93%
    06:00 0°C° 0 mm 3 mps 760 mmHg 94%
    07:00 0°C° 0 mm 3 mps 760 mmHg 94%
    08:00 0°C° 0 mm 3 mps 761 mmHg 95%
    09:00 -1°C° 0 mm 4 mps 761 mmHg 96%
    10:00 -1°C° 0 mm 4 mps 760 mmHg 96%
    11:00 -1°C° 0 mm 4 mps 760 mmHg 97%
    12:00 0°C° 0 mm 4 mps 760 mmHg 98%
    13:00 0°C° 0.2 mm 4 mps 760 mmHg 98%
    14:00 0°C° 0.2 mm 4 mps 759 mmHg 98%
    15:00 0°C° 0.2 mm 4 mps 759 mmHg 98%
    16:00 0°C° 0.3 mm 4 mps 759 mmHg 98%
    17:00 0°C° 0.3 mm 4 mps 759 mmHg 98%
    18:00 0°C° 0.3 mm 4 mps 759 mmHg 98%
    19:00 0°C° 0.1 mm 4 mps 758 mmHg 98%
    20:00 0°C° 0.1 mm 4 mps 758 mmHg 98%
    21:00 +1°C° 0.1 mm 3 mps 758 mmHg 98%
    22:00 +1°C° 0 mm 4 mps 757 mmHg 98%
    23:00 +1°C° 0 mm 4 mps 756 mmHg 98%

    26 January, Saturday

    Time Temperature Precipitation Wind Pressure Humidity
    00:00 +1°C° 0 mm 4 mps 756 mmHg 98%
    01:00 +1°C° 0.1 mm 5 mps 755 mmHg 98%
    02:00 +2°C° 0.1 mm 5 mps 754 mmHg 98%
    03:00 +2°C° 0.1 mm 5 mps 753 mmHg 98%
    04:00 +2°C° 0.9 mm 6 mps 752 mmHg 97%
    05:00 +2°C° 0.9 mm 6 mps 751 mmHg 96%
    06:00 +2°C° 0.9 mm 6 mps 750 mmHg 96%
    07:00 +2°C° 0.9 mm 6 mps 749 mmHg 95%
    08:00 +2°C° 0.9 mm 6 mps 749 mmHg 95%
    09:00 +2°C° 0.9 mm 7 mps 748 mmHg 94%
    10:00 +2°C° 0.9 mm 6 mps 748 mmHg 95%
    11:00 +3°C° 0.9 mm 5 mps 747 mmHg 95%
    12:00 +3°C° 0.9 mm 5 mps 747 mmHg 96%
    13:00 +4°C° 1.3 mm 4 mps 746 mmHg 96%
    14:00 +4°C° 1.3 mm 4 mps 746 mmHg 96%
    15:00 +4°C° 1.3 mm 3 mps 745 mmHg 96%
    16:00 +3°C° 1.5 mm 5 mps 746 mmHg 92%
    17:00 +3°C° 1.5 mm 6 mps 746 mmHg 88%
    18:00 +3°C° 1.5 mm 7 mps 746 mmHg 85%
    19:00 +2°C° 1.4 mm 7 mps 747 mmHg 84%
    20:00 +2°C° 1.4 mm 7 mps 747 mmHg 83%
    21:00 +2°C° 1.4 mm 7 mps 748 mmHg 82%
    22:00 +2°C° 0.4 mm 7 mps 748 mmHg 80%
    23:00 +2°C° 0.4 mm 6 mps 749 mmHg 79%

    27 January, Sunday

    Time Temperature Precipitation Wind Pressure Humidity
    00:00 +2°C° 0.4 mm 6 mps 749 mmHg 77%
    01:00 +2°C° 0.2 mm 5 mps 749 mmHg 79%
    02:00 +2°C° 0.2 mm 5 mps 750 mmHg 80%
    03:00 +3°C° 0.2 mm 4 mps 750 mmHg 82%
    04:00 +2°C° 0.1 mm 5 mps 751 mmHg 82%
    05:00 +2°C° 0.1 mm 5 mps 751 mmHg 81%
    06:00 +2°C° 0.1 mm 5 mps 751 mmHg 81%
    07:00 +2°C° 0.1 mm 5 mps 752 mmHg 81%
    08:00 +2°C° 0.1 mm 5 mps 752 mmHg 80%
    09:00 +2°C° 0.1 mm 5 mps 753 mmHg 79%
    10:00 +3°C° 0.2 mm 5 mps 753 mmHg 76%
    11:00 +3°C° 0.2 mm 6 mps 753 mmHg 72%
    12:00 +4°C° 0.2 mm 6 mps 754 mmHg 69%
    13:00 +3°C° 0.2 mm 6 mps 754 mmHg 69%
    14:00 +3°C° 0.2 mm 5 mps 754 mmHg 70%
    15:00 +3°C° 0.2 mm 5 mps 754 mmHg 71%
    16:00 +3°C° 0.1 mm 4 mps 754 mmHg 73%
    17:00 +2°C° 0.1 mm 3 mps 755 mmHg 76%
    18:00 +1°C° 0.1 mm 3 mps 755 mmHg 79%
    19:00 +2°C° 0 mm 2 mps 755 mmHg 79%
    20:00 +1°C° 0 mm 2 mps 756 mmHg 79%
    21:00 +1°C° 0 mm 2 mps 756 mmHg 79%
    22:00 +1°C° 0 mm 2 mps 756 mmHg 78%
    23:00 +1°C° 0 mm 2 mps 756 mmHg 78%
    Show more